OEFFB LIEO-LEIB

Flight info

Callsign OEFFB
Flight time 1h 5m
Altitude 35000
Route SUTAD DCT USEPI DCT GOKMI DCT SUPUX DCT KUPIM DCT SUXER DCT RIPAL DCT MORSS
Aircraft C750/M-SBDE3FGHRWXY/S

Departure

Time 2026-05-05 17:02
Airport Olbia Costa Smeralda Airport (LIEO)

Arrival

Time 2026-05-05 18:08
Airport Ibiza Airport (LEIB)
Time Latitude Longitude Altitude Speed Heading
2026-05-05 16:43 40.89532 9.50308 42 ft 0 kts 213°
2026-05-05 16:44 40.89533 9.50308 42 ft 0 kts 213°
2026-05-05 16:52 40.89533 9.50309 42 ft 0 kts 213°
2026-05-05 16:54 40.89513 9.50299 42 ft 8 kts 185°
2026-05-05 16:55 40.89483 9.50340 42 ft 6 kts 94°
2026-05-05 16:55 40.89497 9.50394 42 ft 6 kts 70°
2026-05-05 16:55 40.89491 9.50447 42 ft 8 kts 126°
2026-05-05 16:55 40.89454 9.50522 42 ft 12 kts 101°
2026-05-05 16:56 40.89487 9.50621 41 ft 11 kts 60°
2026-05-05 16:56 40.89533 9.50724 40 ft 16 kts 57°
2026-05-05 16:56 40.89605 9.50866 39 ft 22 kts 56°
2026-05-05 16:56 40.89703 9.51054 38 ft 28 kts 55°
2026-05-05 16:57 40.89826 9.51284 36 ft 34 kts 56°
2026-05-05 16:57 40.89968 9.51560 34 ft 39 kts 57°
2026-05-05 16:57 40.90115 9.51837 32 ft 29 kts 54°
2026-05-05 16:57 40.90186 9.51980 31 ft 18 kts 59°
2026-05-05 16:58 40.90255 9.52114 30 ft 17 kts 56°
2026-05-05 16:58 40.90323 9.52245 30 ft 17 kts 54°
2026-05-05 16:58 40.90391 9.52373 29 ft 17 kts 58°
2026-05-05 16:58 40.90452 9.52501 28 ft 15 kts 71°
2026-05-05 16:59 40.90449 9.52620 27 ft 8 kts 95°
2026-05-05 16:59 40.90449 9.52624 27 ft 0 kts 95°
2026-05-05 17:01 40.90448 9.52631 27 ft 5 kts 95°
2026-05-05 17:01 40.90394 9.52692 28 ft 16 kts 175°
2026-05-05 17:01 40.90334 9.52653 27 ft 0 kts 232°
2026-05-05 17:02 40.90213 9.52423 30 ft 87 kts 236°
2026-05-05 17:02 40.89683 9.51419 119 ft 156 kts 238°
2026-05-05 17:02 40.89073 9.50209 791 ft 166 kts 240°
2026-05-05 17:02 40.88411 9.48865 1466 ft 184 kts 233°
2026-05-05 17:03 40.87628 9.47441 2325 ft 198 kts 233°
2026-05-05 17:03 40.86820 9.45919 3337 ft 206 kts 235°
2026-05-05 17:03 40.85998 9.44350 4408 ft 210 kts 234°
2026-05-05 17:03 40.85156 9.42749 5519 ft 213 kts 234°
2026-05-05 17:04 40.84313 9.41147 6637 ft 213 kts 234°
2026-05-05 17:04 40.83750 9.40085 7351 ft 214 kts 234°
2026-05-05 17:04 40.82915 9.38448 8465 ft 216 kts 236°
2026-05-05 17:04 40.82047 9.36820 9608 ft 216 kts 233°
2026-05-05 17:05 40.81197 9.35196 10659 ft 213 kts 234°
2026-05-05 17:05 40.80345 9.33619 11684 ft 209 kts 234°
2026-05-05 17:05 40.79515 9.32057 12722 ft 206 kts 235°
2026-05-05 17:05 40.78704 9.30516 13743 ft 203 kts 235°
2026-05-05 17:06 40.77905 9.28997 14648 ft 200 kts 234°
2026-05-05 17:06 40.77115 9.27499 15536 ft 197 kts 235°
2026-05-05 17:06 40.76336 9.26024 16445 ft 195 kts 234°
2026-05-05 17:06 40.75513 9.24613 17324 ft 193 kts 233°
2026-05-05 17:07 40.74715 9.23191 18231 ft 192 kts 234°
2026-05-05 17:07 40.73918 9.21776 19008 ft 192 kts 233°
2026-05-05 17:07 40.73117 9.20375 19801 ft 191 kts 233°
2026-05-05 17:07 40.72319 9.18981 20609 ft 190 kts 234°
2026-05-05 17:08 40.71500 9.17547 21126 ft 206 kts 234°
2026-05-05 17:08 40.70595 9.15962 21351 ft 233 kts 234°
2026-05-05 17:08 40.69564 9.14161 21571 ft 259 kts 234°
2026-05-05 17:08 40.68419 9.12164 21757 ft 286 kts 234°
2026-05-05 17:09 40.67159 9.09967 21834 ft 314 kts 234°
2026-05-05 17:09 40.65785 9.07570 21870 ft 341 kts 234°
2026-05-05 17:09 40.64303 9.04989 21917 ft 365 kts 234°
2026-05-05 17:09 40.62726 9.02246 22101 ft 382 kts 234°
2026-05-05 17:10 40.61164 8.99414 22861 ft 383 kts 238°
2026-05-05 17:10 40.59900 8.96313 23547 ft 386 kts 246°
2026-05-05 17:10 40.58985 8.93029 24135 ft 388 kts 253°
2026-05-05 17:10 40.58362 8.89570 24758 ft 390 kts 256°
2026-05-05 17:11 40.57761 8.86080 25366 ft 391 kts 256°
2026-05-05 17:11 40.57140 8.82585 25960 ft 393 kts 255°
2026-05-05 17:11 40.56528 8.79083 26601 ft 394 kts 255°
2026-05-05 17:11 40.55922 8.75569 27174 ft 396 kts 255°
2026-05-05 17:12 40.55304 8.72022 27766 ft 398 kts 255°
2026-05-05 17:12 40.54679 8.68462 28413 ft 399 kts 255°
2026-05-05 17:12 40.54051 8.64896 29002 ft 402 kts 255°
2026-05-05 17:12 40.53420 8.61303 29541 ft 405 kts 255°
2026-05-05 17:13 40.52783 8.57673 30072 ft 408 kts 255°
2026-05-05 17:13 40.52140 8.54031 30518 ft 411 kts 255°
2026-05-05 17:13 40.51490 8.50354 30956 ft 413 kts 255°
2026-05-05 17:13 40.50840 8.46689 31638 ft 410 kts 255°
2026-05-05 17:14 40.50204 8.43096 32301 ft 408 kts 255°
2026-05-05 17:14 40.49558 8.39465 32922 ft 407 kts 255°
2026-05-05 17:14 40.48914 8.35854 33573 ft 406 kts 255°
2026-05-05 17:14 40.48269 8.32242 34240 ft 404 kts 255°
2026-05-05 17:15 40.47633 8.28685 34842 ft 396 kts 255°
2026-05-05 17:15 40.46997 8.25135 34999 ft 405 kts 255°
2026-05-05 17:15 40.46339 8.21479 35000 ft 418 kts 255°
2026-05-05 17:15 40.45661 8.17711 35000 ft 430 kts 255°
2026-05-05 17:16 40.44259 8.09931 35013 ft 443 kts 255°
2026-05-05 17:16 40.42811 8.01944 35010 ft 455 kts 255°
2026-05-05 17:17 40.41698 7.93743 35003 ft 461 kts 258°
2026-05-05 17:17 40.40640 7.85418 35003 ft 464 kts 258°
2026-05-05 17:18 40.39602 7.77043 34998 ft 466 kts 258°
2026-05-05 17:18 40.38539 7.68646 34998 ft 466 kts 258°
2026-05-05 17:19 40.37478 7.60261 34995 ft 466 kts 258°
2026-05-05 17:19 40.36414 7.51927 34946 ft 464 kts 257°
2026-05-05 17:20 40.35341 7.43563 34942 ft 465 kts 257°
2026-05-05 17:20 40.34261 7.35197 34943 ft 465 kts 257°
2026-05-05 17:21 40.33175 7.26830 34940 ft 465 kts 257°
2026-05-05 17:22 40.31543 7.14349 34941 ft 465 kts 257°
2026-05-05 17:22 40.30441 7.05984 34941 ft 465 kts 257°
2026-05-05 17:23 40.29336 6.97643 34937 ft 465 kts 257°
2026-05-05 17:23 40.28229 6.89334 34937 ft 465 kts 257°
2026-05-05 17:24 40.27111 6.80992 34919 ft 466 kts 257°
2026-05-05 17:24 40.25982 6.72621 34920 ft 467 kts 257°
2026-05-05 17:25 40.24846 6.64239 34917 ft 467 kts 257°
2026-05-05 17:25 40.23713 6.55919 34917 ft 467 kts 257°
2026-05-05 17:26 40.22565 6.47550 34918 ft 467 kts 257°
2026-05-05 17:26 40.21411 6.39176 34924 ft 468 kts 257°
2026-05-05 17:27 40.20250 6.30800 34924 ft 468 kts 257°
2026-05-05 17:27 40.19083 6.22426 34922 ft 468 kts 257°
2026-05-05 17:28 40.17917 6.14107 34922 ft 468 kts 257°
2026-05-05 17:28 40.16739 6.05745 34915 ft 466 kts 257°
2026-05-05 17:29 40.15556 5.97398 34916 ft 467 kts 257°
2026-05-05 17:29 40.14368 5.89054 34909 ft 467 kts 257°
2026-05-05 17:30 40.13175 5.80723 34903 ft 466 kts 257°
2026-05-05 17:30 40.11976 5.72394 34910 ft 466 kts 256°
2026-05-05 17:31 40.10779 5.64128 34906 ft 466 kts 257°
2026-05-05 17:31 40.09566 5.55790 34907 ft 467 kts 256°
2026-05-05 17:32 40.08348 5.47459 34908 ft 467 kts 256°
2026-05-05 17:32 40.07121 5.39120 34906 ft 467 kts 256°
2026-05-05 17:33 40.05890 5.30787 34910 ft 465 kts 256°
2026-05-05 17:33 40.04659 5.22504 34914 ft 465 kts 256°
2026-05-05 17:34 40.03421 5.14212 34906 ft 465 kts 256°
2026-05-05 17:34 40.02184 5.05974 34906 ft 465 kts 256°
2026-05-05 17:35 40.00933 4.97687 34906 ft 465 kts 256°
2026-05-05 17:35 39.99682 4.89429 34906 ft 461 kts 256°
2026-05-05 17:36 39.98430 4.81220 34904 ft 462 kts 256°
2026-05-05 17:36 39.96975 4.73079 34897 ft 461 kts 252°
2026-05-05 17:37 39.95330 4.65010 34900 ft 461 kts 253°
2026-05-05 17:37 39.93688 4.56988 34916 ft 461 kts 252°
2026-05-05 17:38 39.92034 4.48966 34910 ft 458 kts 252°
2026-05-05 17:38 39.90373 4.40917 34913 ft 459 kts 252°
2026-05-05 17:39 39.88705 4.32883 34916 ft 459 kts 252°
2026-05-05 17:39 39.87035 4.24858 34919 ft 459 kts 252°
2026-05-05 17:40 39.85036 4.17040 34915 ft 456 kts 247°
2026-05-05 17:40 39.82594 4.09435 34915 ft 455 kts 244°
2026-05-05 17:41 39.80092 4.01855 34912 ft 456 kts 246°
2026-05-05 17:41 39.77685 3.94363 34902 ft 433 kts 245°
2026-05-05 17:42 39.75302 3.87161 34889 ft 433 kts 245°
2026-05-05 17:42 39.72950 3.79925 34894 ft 436 kts 245°
2026-05-05 17:43 39.70563 3.72695 34894 ft 435 kts 245°
2026-05-05 17:43 39.68187 3.65463 34895 ft 435 kts 245°
2026-05-05 17:44 39.65814 3.58284 34897 ft 435 kts 245°
2026-05-05 17:44 39.63425 3.51067 34898 ft 435 kts 245°
2026-05-05 17:45 39.61030 3.43852 34896 ft 435 kts 245°
2026-05-05 17:45 39.59846 3.40289 34889 ft 419 kts 245°
2026-05-05 17:45 39.58729 3.36926 34312 ft 399 kts 245°
2026-05-05 17:45 39.57629 3.33630 33045 ft 396 kts 245°
2026-05-05 17:46 39.56531 3.30354 31789 ft 397 kts 245°
2026-05-05 17:46 39.55431 3.27060 30599 ft 400 kts 245°
2026-05-05 17:46 39.54322 3.23741 29371 ft 401 kts 245°
2026-05-05 17:46 39.53224 3.20460 28060 ft 393 kts 246°
2026-05-05 17:47 39.52144 3.17238 26829 ft 386 kts 246°
2026-05-05 17:47 39.51096 3.14120 25663 ft 380 kts 246°
2026-05-05 17:47 39.50051 3.11011 24532 ft 374 kts 246°
2026-05-05 17:47 39.49018 3.07939 23425 ft 369 kts 246°
2026-05-05 17:48 39.47997 3.04906 22375 ft 362 kts 246°
2026-05-05 17:48 39.47013 3.01986 22480 ft 356 kts 246°
2026-05-05 17:48 39.45997 2.98976 22518 ft 371 kts 246°
2026-05-05 17:48 39.44956 2.95894 22494 ft 372 kts 246°
2026-05-05 17:49 39.43953 2.92927 22054 ft 362 kts 246°
2026-05-05 17:49 39.42946 2.89954 21582 ft 360 kts 246°
2026-05-05 17:49 39.41943 2.86995 21094 ft 358 kts 246°
2026-05-05 17:49 39.40943 2.84048 20633 ft 356 kts 246°
2026-05-05 17:50 39.39950 2.81121 20174 ft 354 kts 246°
2026-05-05 17:50 39.38959 2.78209 19706 ft 352 kts 246°
2026-05-05 17:50 39.37974 2.75314 19241 ft 350 kts 246°
2026-05-05 17:50 39.36996 2.72441 18780 ft 349 kts 246°
2026-05-05 17:51 39.36022 2.69583 18316 ft 347 kts 246°
2026-05-05 17:51 39.35049 2.66735 17849 ft 344 kts 246°
2026-05-05 17:51 39.34091 2.63929 17378 ft 341 kts 246°
2026-05-05 17:51 39.33138 2.61140 16924 ft 339 kts 246°
2026-05-05 17:52 39.32187 2.58362 16458 ft 338 kts 246°
2026-05-05 17:52 39.31232 2.55575 16036 ft 338 kts 246°
2026-05-05 17:52 39.30294 2.52842 15595 ft 336 kts 246°
2026-05-05 17:52 39.29349 2.50089 15152 ft 335 kts 245°
2026-05-05 17:53 39.28407 2.47347 14710 ft 333 kts 245°
2026-05-05 17:53 39.27471 2.44625 14271 ft 331 kts 245°
2026-05-05 17:53 39.26851 2.42824 13981 ft 330 kts 245°
2026-05-05 17:53 39.25917 2.40114 13530 ft 329 kts 245°
2026-05-05 17:54 39.24988 2.37421 13084 ft 328 kts 245°
2026-05-05 17:54 39.24060 2.34731 12652 ft 327 kts 245°
2026-05-05 17:54 39.23134 2.32052 12220 ft 326 kts 245°
2026-05-05 17:54 39.22211 2.29381 11793 ft 326 kts 245°
2026-05-05 17:55 39.21288 2.26715 11361 ft 325 kts 245°
2026-05-05 17:55 39.20372 2.24070 10931 ft 314 kts 245°
2026-05-05 17:55 39.19516 2.21600 10569 ft 289 kts 246°
2026-05-05 17:55 39.18724 2.19320 10244 ft 272 kts 246°
2026-05-05 17:56 39.17965 2.17134 9894 ft 268 kts 246°
2026-05-05 17:56 39.17204 2.14944 9533 ft 267 kts 246°
2026-05-05 17:56 39.16446 2.12766 9176 ft 266 kts 246°
2026-05-05 17:56 39.15692 2.10599 8826 ft 265 kts 246°
2026-05-05 17:57 39.14938 2.08435 8478 ft 264 kts 246°
2026-05-05 17:57 39.14186 2.06275 8130 ft 264 kts 246°
2026-05-05 17:57 39.13443 2.04145 7785 ft 263 kts 247°
2026-05-05 17:57 39.12691 2.01992 7438 ft 262 kts 247°
2026-05-05 17:58 39.11942 1.99848 7091 ft 262 kts 247°
2026-05-05 17:58 39.11193 1.97705 6745 ft 262 kts 247°
2026-05-05 17:58 39.10447 1.95573 6401 ft 261 kts 247°
2026-05-05 17:58 39.09700 1.93439 6048 ft 261 kts 246°
2026-05-05 17:59 39.08959 1.91324 5699 ft 258 kts 246°
2026-05-05 17:59 39.08219 1.89214 5361 ft 259 kts 246°
2026-05-05 17:59 39.07481 1.87108 5016 ft 257 kts 246°
2026-05-05 17:59 39.06748 1.85021 4674 ft 255 kts 246°
2026-05-05 18:00 39.06020 1.82949 4335 ft 253 kts 245°
2026-05-05 18:00 39.05245 1.80979 4003 ft 240 kts 242°
2026-05-05 18:00 39.04505 1.79115 3696 ft 228 kts 243°
2026-05-05 18:00 39.03812 1.77320 3392 ft 219 kts 243°
2026-05-05 18:01 39.03129 1.75601 3106 ft 214 kts 243°
2026-05-05 18:01 39.02463 1.73943 2984 ft 207 kts 242°
2026-05-05 18:01 39.01779 1.72306 2991 ft 209 kts 241°
2026-05-05 18:01 39.01092 1.70670 2999 ft 210 kts 241°
2026-05-05 18:02 39.00408 1.69028 3002 ft 208 kts 242°
2026-05-05 18:02 38.99721 1.67377 3003 ft 209 kts 242°
2026-05-05 18:02 38.99032 1.65724 3009 ft 210 kts 241°
2026-05-05 18:02 38.98324 1.64081 3005 ft 209 kts 241°
2026-05-05 18:03 38.97636 1.62431 3007 ft 210 kts 242°
2026-05-05 18:03 38.96952 1.60773 2999 ft 209 kts 242°
2026-05-05 18:03 38.96269 1.59117 2991 ft 208 kts 242°
2026-05-05 18:03 38.95637 1.57585 2984 ft 178 kts 242°
2026-05-05 18:04 38.95078 1.56228 2988 ft 171 kts 241°
2026-05-05 18:04 38.94525 1.54887 2835 ft 173 kts 242°
2026-05-05 18:04 38.93963 1.53523 2607 ft 172 kts 241°
2026-05-05 18:04 38.93408 1.52179 2391 ft 168 kts 240°
2026-05-05 18:05 38.92863 1.50857 2166 ft 167 kts 239°
2026-05-05 18:05 38.92323 1.49548 1947 ft 161 kts 240°
2026-05-05 18:05 38.91824 1.48335 1737 ft 148 kts 239°
2026-05-05 18:05 38.91359 1.47206 1546 ft 139 kts 239°
2026-05-05 18:06 38.90922 1.46140 1359 ft 131 kts 239°
2026-05-05 18:06 38.90656 1.45443 1216 ft 131 kts 240°
2026-05-05 18:06 38.90091 1.44044 1000 ft 133 kts 239°
2026-05-05 18:06 38.89631 1.43011 839 ft 135 kts 238°
2026-05-05 18:07 38.89196 1.41968 716 ft 127 kts 242°
2026-05-05 18:07 38.88792 1.40973 524 ft 126 kts 242°
2026-05-05 18:07 38.88391 1.40011 366 ft 120 kts 242°
2026-05-05 18:07 38.87998 1.39062 161 ft 120 kts 242°
2026-05-05 18:08 38.87615 1.38125 33 ft 113 kts 242°
2026-05-05 18:08 38.87327 1.37414 23 ft 36 kts 242°
2026-05-05 18:08 38.87311 1.37392 23 ft 1 kts 240°